500  
SXUS52 KJAX 221613  
OSOJAX  
OTHER SURFACE OBSERVATIONS  
NATIONAL WEATHER SERVICE JACKSONVILLE FL  
1200 PM EDT THU APR 22 2021  
 
FLZ020>025-030>033-035>038-040-221700-   
..FLORIDA
 
 
 
CITY SKY/WX TMP DP RH WIND PRES REMARKS  
CECIL FIELD SUNNY 61 43 51 NE15 30.19S  
HERLONG FIELD NOT AVBL  
FERNANDINA BCH NOT AVBL  
LAKE CITY FAIR 59 36 41 E8 30.20S  
JUNIPER SPGS NOT AVBL  
BUNNELL NOT AVBL  
KEYSTONE HGTS SUNNY 63 36 36 NE12G20 30.17F  

 
 
GAZ132>136-149>154-162>166-221700-   
..GEORGIA
 
 
 
CITY SKY/WX TMP DP RH WIND PRES REMARKS  
JESUP FAIR 57 23 26 CALM 30.24S  
HOMERVILLE FAIR 57 27 30 E8 30.23S  
SWAINSBORO FAIR 55 -2 9 E3 30.26S  
CORDELE FAIR 55 21 26 E5 30.27S  
EASTMAN FAIR 55 25 30 CALM 30.26F  

 
 
PLEASE NOTE: THESE OBSERVATIONS ARE NOT QUALITY CONTROLLED AND MAY  
NOT BE AVAILABLE AT ALL TIMES.  

 
 
 
CLICK HERE TO GO TO PREVIOUS BULLETINS.

The Nexlab FL Page
The Nexlab GA Page Main Text Page